User: anonymous   Login
Location: Middlebury
(44.0153°N, 73.1678°W)
Time: 08:55:32
(UTC-04:00)
Language:

TESLA ROADSTER/FALCON 9H - Orbit

View from above orbital plane
View from above orbital plane
View from above satellite
View from above satellite

Ground track
Ground track

The orbit data is extracted from the following two-line orbital elements,

1 43205U 18017A   18038.22157858  .00505133 -52681-6  23951-2 0  9997
2 43205  29.0196 286.7252 3400758 181.1849 342.1043  8.76376464    24
Epoch (UTC): 07 February 2018 05:19:04
Eccentricity: 0.3400758
inclination: 29.0196°
perigee height: 180 km
apogee height: 6939 km
right ascension of ascending node: 286.7252°
argument of perigee: 181.1849°
revolutions per day: 8.76376464
mean anomaly at epoch: 342.1043°
orbit number at epoch: 2

The dashed part of the orbit path shows where the satellite is in the earth's shadow,  

DLR